Meteo Giornale » Osservazioni meteo Stati Uniti (USA) » Fort Belvoir

ore: 16:55 - Osservazioni Meteo Fort Belvoir
Lat. 38° 43' N Lon. 77° 11' W Alt. 21 metri s.l.m.

poco_nuvoloso

36 °C

Poco Nuvoloso

Temp. 24 Ore

23 °C

36 °C

Ovest/Nord-Ovest

7.4 Km/h

Dew point 21 °C

Umidità 41 %

Visibilità  10 Km

Il sole sorge alle ore 06:38

Il sole tramonta alle ore 19:39

Data e Ora Cielo e Fenomeni T °C DP °C Um. % Pres. hPa Vis. km Vento km/h
Oggi h: 16:55 poco_nuvoloso Poco Nuvoloso 36 21 41 1013 10 O/NO 7.4
Oggi h: 15:55 sereno Sereno 36 21 41 1013 10 O/NO 14.8
Oggi h: 14:55 sereno Sereno 35 22 47 1014 10 O 11.1
Oggi h: 13:55 poco_nuvoloso Poco Nuvoloso 34 22 49 1014 10 O 7.4
Oggi h: 12:55 sereno Sereno 34 23 52 1015 10 O/SO 9.3
Oggi h: 11:55 sereno Sereno 33 22 52 1015 10 O/SO 7.4
Oggi h: 10:55 sereno Sereno 32 24 62 1016 10 N 0
Oggi h: 09:55 sereno Sereno 29 23 70 1016 10 N 0
Oggi h: 08:55 sereno Sereno 26 24 88 1016 10 N 0
Oggi h: 08:48 sereno Sereno 26 24 88 1016 10 N 0
Oggi h: 08:19 coperto_pioggia Pioggia 25 24 94 1016 10 N 0
Oggi h: 07:55 sereno Sereno 24 23 94 1016 10 N 0
Oggi h: 05:55 nuvoloso Nuvoloso 23 22 94 1015 10 N 0
Oggi h: 05:20 foschia Foschia 23 22 94 1016 6 N 0
Oggi h: 05:15 foschia Foschia 23 22 94 1016 2 N 0
Oggi h: 04:55 foschia Foschia 23 22 94 1016 10 N 0
Oggi h: 03:55 foschia Foschia 23 23 100 1016 8 N 0
Oggi h: 02:55 nuvoloso Nuvoloso 24 23 94 1016 14 N 0
Oggi h: 01:55 molto_nuvoloso Molto Nuvoloso 24 23 94 1016 13 N 0
Oggi h: 00:55 molto_nuvoloso Molto Nuvoloso 24 23 94 1017 13 N 0
Ieri h: 23:55 foschia Foschia 24 23 94 1017 8 N 0
Ieri h: 22:55 poco_nuvoloso Poco Nuvoloso 25 23 88 1017 14 N 0
Ieri h: 21:55 sereno Sereno 25 24 94 1017 10 N 0
Ieri h: 20:55 poco_nuvoloso Poco Nuvoloso 25 24 94 1017 10 N 5.5
Ieri h: 19:55 molto_nuvoloso Molto Nuvoloso 27 24 83 1016 10 N 0
Ieri h: 18:55 poco_nuvoloso Poco Nuvoloso 28 25 83 1016 10 N 0